This is the latest recevied weather packets stored in our database for station/object KD9IXX-13. If no packets are shown the sender has not sent any weather packets the latest 10 day(s).
| Time | Temp. | Humidity | Pressure | Rain* | Wind** | Luminosity | Snow |
|---|---|---|---|---|---|---|---|
| 1787429402 | 26.11° C | 59% | 1015.5 hPa | 0 mm | - | 623 W/m² | - |
| 1787429102 | 26.11° C | 63% | 1015.4 hPa | 0 mm | - | 147 W/m² | - |
| 1787428502 | 25.56° C | 67% | 1015.8 hPa | 0 mm | - | 632 W/m² | - |
| 1787428202 | 26.11° C | 66% | 1015.8 hPa | 0 mm | - | 125 W/m² | - |
| 1787427602 | 26.67° C | 64% | 1015.8 hPa | 0 mm | - | 118 W/m² | - |
| 1787427302 | 26.11° C | 64% | 1015.9 hPa | 0 mm | - | 700 W/m² | - |
| 1787425802 | 27.22° C | 64% | 1015.7 hPa | 0 mm | - | 649 W/m² | - |
| 1787424002 | 26.67° C | 65% | 1016.1 hPa | 0 mm | - | 156 W/m² | - |
| 1787423402 | 26.11° C | 66% | 1016 hPa | 0 mm | - | 762 W/m² | - |
| 1787423102 | 26.67° C | 64% | 1016.1 hPa | 0 mm | - | 732 W/m² | - |
| 1787422502 | 26.67° C | 62% | 1016.1 hPa | 0 mm | - | 635 W/m² | - |
| 1787421602 | 26.67° C | 65% | 1016.3 hPa | 0 mm | - | 317 W/m² | - |
| 1787421302 | 26.67° C | 62% | 1016.3 hPa | 0 mm | - | 668 W/m² | - |
| 1787420102 | 26.67° C | 64% | 1016.3 hPa | 0 mm | - | 667 W/m² | - |
| 1787419801 | 26.67° C | 64% | 1016.4 hPa | 0 mm | - | 625 W/m² | - |
| 1787419502 | 26.11° C | 66% | 1016.4 hPa | 0 mm | - | 616 W/m² | - |
| 1787419202 | 26.11° C | 63% | 1016.4 hPa | 0 mm | - | 655 W/m² | - |
| 1787418903 | 26.11° C | 63% | 1016.4 hPa | 0 mm | - | 625 W/m² | - |
| 1787417702 | 25.56° C | 63% | 1016.4 hPa | 0 mm | - | 615 W/m² | - |
| 1787416802 | 26.11° C | 63% | 1016.3 hPa | 0 mm | - | 652 W/m² | - |
| 1787416201 | 25.56° C | 63% | 1016.5 hPa | 0 mm | - | 633 W/m² | - |
| 1787415602 | 25° C | 64% | 1016.5 hPa | 0 mm | - | 661 W/m² | - |
| 1787414702 | 25° C | 62% | 1016.6 hPa | 0 mm | - | 642 W/m² | - |
| 1787414101 | 24.44° C | 65% | 1016.5 hPa | 0 mm | - | 666 W/m² | - |
| 1787413802 | 24.44° C | 65% | 1016.6 hPa | 0 mm | - | 642 W/m² | - |
* Rain latest hour (hover to see other rain measurements)
** Current wind speed in m/s (hover to see current wind gust speed)